| time (UTC) | temp F | wind direction | speed knots | gust knots | rain 1hr in | rain 24hr in | rain mn in | humidity % | barometer mb |
| 20260503004904 | 56 | 260 | 0.0 | 1.7 | 0.02 | 0.09 | 0.08 | 89 | 1011.6 |
| 20260503004719 | 56 | 260 | 0.0 | 0.9 | 0.08 | 0.09 | 0.08 | 88 | 1011.7 |
| 20260503004536 | 56 | 260 | 0.0 | 1.7 | 0.05 | 0.09 | 0.08 | 88 | 1011.5 |
| 20260503001402 | 56 | 260 | 0.0 | 0.9 | 0.08 | 0.09 | 0.08 | 87 | 1011.9 |
| 20260503000356 | 57 | 260 | 0.0 | 1.7 | 0.08 | 0.09 | 0.08 | 86 | 1012.0 |
| 20260502235346 | 57 | 260 | 0.0 | 2.6 | 0.08 | 0.09 | 0.08 | 85 | 1012.6 |
| 20260502234343 | 58 | 260 | 0.0 | 0.9 | 0.06 | 0.07 | 0.06 | 82 | 1013.0 |
| 20260502233314 | 59 | 260 | 0.0 | 1.7 | 0.03 | 0.04 | 0.03 | 80 | 1013.2 |
| 20260502232243 | 59 | 260 | 0.9 | 3.5 | 0.00 | 0.01 | 0.00 | 76 | 1013.7 |
| 20260502231246 | 59 | 260 | 0.9 | 2.6 | 0.00 | 0.01 | 0.00 | 76 | 1013.7 |
| 20260502230231 | 58 | 260 | 0.9 | 3.5 | 0.00 | 0.01 | 0.00 | 77 | 1013.8 |
| 20260502225213 | 58 | 260 | 0.9 | 3.5 | 0.00 | 0.01 | 0.00 | 77 | 1013.7 |
| 20260502224207 | 58 | 260 | 0.0 | 1.7 | 0.00 | 0.01 | 0.00 | 75 | 1013.5 |
| 20260502223207 | 59 | 260 | 0.0 | 0.0 | 0.00 | 0.01 | 0.00 | 74 | 1012.9 |
| 20260502222206 | 59 | 260 | 0.0 | 1.7 | 0.00 | 0.01 | 0.00 | 74 | 1012.7 |
| 20260502221219 | 59 | 260 | 0.0 | 3.5 | 0.00 | 0.01 | 0.00 | 73 | 1012.6 |
| 20260502220206 | 59 | 260 | 0.0 | 0.9 | 0.00 | 0.01 | 0.00 | 72 | 1012.7 |
| 20260502215156 | 60 | 260 | 0.0 | 0.0 | 0.00 | 0.01 | 0.01 | 72 | 1012.7 |
| 20260502214152 | 60 | 260 | 0.0 | 1.7 | 0.00 | 0.01 | 0.01 | 71 | 1013.0 |
| 20260502213123 | 60 | 260 | 0.0 | 1.7 | 0.00 | 0.01 | 0.01 | 71 | 1013.0 |
| 20260502212631 | 60 | 260 | 0.0 | 0.9 | 0.00 | 0.01 | 0.01 | 70 | 1013.4 |
| 20260502212525 | 61 | 260 | 0.9 | 2.6 | 0.00 | 0.01 | 0.01 | 69 | 1013.7 |
| 20260502210115 | 61 | 260 | 0.9 | 2.6 | 0.00 | 0.01 | 0.01 | 69 | 1013.2 |
| 20260502205107 | 61 | 261 | 0.0 | 1.7 | 0.00 | 0.01 | 0.01 | 68 | 1013.4 |
| 20260502204030 | 61 | 261 | 0.0 | 1.7 | 0.00 | 0.01 | 0.01 | 67 | 1013.4 |
| 20260502202958 | 61 | 261 | 0.0 | 0.9 | 0.00 | 0.01 | 0.01 | 66 | 1013.3 |
| 20260502202327 | 62 | 261 | 0.0 | 0.9 | 0.00 | 0.01 | 0.01 | 64 | 1013.6 |
| 20260502201952 | 62 | 261 | 0.0 | 1.7 | 0.00 | 0.01 | 0.01 | 65 | 1013.3 |
| 20260502195842 | 62 | 261 | 0.0 | 0.0 | 0.00 | 0.01 | 0.01 | 64 | 1013.6 |
| 20260502194837 | 63 | 261 | 0.0 | 0.0 | 0.00 | 0.01 | 0.01 | 64 | 1013.7 |
| 20260502193759 | 63 | 261 | 0.0 | 0.0 | 0.00 | 0.01 | 0.01 | 64 | 1013.8 |
| 20260502192723 | 63 | 261 | 0.0 | 0.9 | 0.00 | 0.01 | 0.01 | 64 | 1013.8 |
| 20260502192127 | 64 | 261 | 0.0 | 0.9 | 0.00 | 0.01 | 0.01 | 67 | 1013.7 |
| 20260502191757 | 64 | 261 | 0.0 | 0.9 | 0.00 | 0.01 | 0.01 | 66 | 1013.7 |
| 20260502185720 | 64 | 261 | 0.0 | 0.9 | 0.00 | 0.01 | 0.01 | 69 | 1013.5 |
| 20260502184708 | 65 | 261 | 0.0 | 0.0 | 0.00 | 0.01 | 0.01 | 67 | 1013.7 |
| 20260502183703 | 66 | 261 | 0.0 | 0.0 | 0.00 | 0.01 | 0.01 | 66 | 1013.7 |
| 20260502183035 | 67 | 261 | 0.0 | 2.6 | 0.00 | 0.01 | 0.01 | 64 | 1013.5 |
| 20260502182653 | 66 | 261 | 0.0 | 0.9 | 0.00 | 0.01 | 0.01 | 65 | 1013.6 |
| 20260502180620 | 68 | 261 | 0.0 | 2.6 | 0.00 | 0.01 | 0.01 | 63 | 1013.7 |
| 20260502163443 | 73 | 261 | 1.7 | 7.0 | 0.00 | 0.01 | 0.01 | 60 | 1014.1 |
| 20260502162901 | 72 | 258 | 1.7 | 5.2 | 0.00 | 0.01 | 0.01 | 57 | 1014.1 |
| 20260502162734 | 73 | 258 | 1.7 | 5.2 | 0.00 | 0.01 | 0.01 | 58 | 1014.2 |
| 20260502162528 | 72 | 263 | 1.7 | 7.0 | 0.00 | 0.01 | 0.01 | 58 | 1014.2 |
| 20260502151422 | 74 | 253 | 1.7 | 7.0 | 0.00 | 0.01 | 0.01 | 58 | 1014.6 |
| 20260502150404 | 74 | 267 | 1.7 | 5.2 | 0.00 | 0.01 | 0.01 | 58 | 1014.7 |
| 20260502130243 | 71 | 261 | 4.3 | 9.6 | 0.00 | 0.01 | 0.01 | 63 | 1015.9 |
| 20260502123204 | 72 | 270 | 4.3 | 9.6 | 0.00 | 0.01 | 0.01 | 59 | 1016.2 |
| 20260502122650 | 71 | 263 | 4.3 | 9.6 | 0.00 | 0.01 | 0.01 | 60 | 1016.2 |
| 20260502121216 | 72 | 248 | 2.6 | 7.0 | 0.00 | 0.01 | 0.01 | 60 | 1016.3 |
| 20260502120133 | 72 | 253 | 3.5 | 7.8 | 0.00 | 0.01 | 0.01 | 60 | 1016.3 |
| 20260502115104 | 72 | 282 | 3.5 | 8.7 | 0.00 | 0.01 | 0.01 | 60 | 1016.5 |
| 20260502114056 | 71 | 259 | 4.3 | 8.7 | 0.00 | 0.01 | 0.01 | 59 | 1016.6 |
| 20260502113032 | 72 | 259 | 2.6 | 7.0 | 0.00 | 0.01 | 0.01 | 59 | 1016.6 |
| 20260502112430 | 71 | 248 | 3.5 | 10.4 | 0.00 | 0.01 | 0.01 | 60 | 1016.7 |
| 20260502112102 | 72 | 265 | 2.6 | 7.8 | 0.00 | 0.01 | 0.01 | 58 | 1016.7 |
| 20260502110024 | 70 | 272 | 3.5 | 7.8 | 0.00 | 0.01 | 0.01 | 61 | 1016.7 |
| 20260502104954 | 70 | 266 | 2.6 | 6.1 | 0.00 | 0.01 | 0.01 | 61 | 1016.7 |
| 20260502104322 | 71 | 270 | 2.6 | 5.2 | 0.00 | 0.01 | 0.01 | 56 | 1016.8 |
| 20260502104004 | 70 | 266 | 3.5 | 7.0 | 0.00 | 0.01 | 0.01 | 62 | 1016.9 |
| 20260502101910 | 71 | 236 | 1.7 | 6.1 | 0.00 | 0.01 | 0.01 | 51 | 1016.9 |
| 20260502100907 | 70 | 225 | 0.9 | 6.1 | 0.00 | 0.01 | 0.01 | 53 | 1016.8 |
| 20260502090809 | 63 | 231 | 0.0 | 1.7 | 0.00 | 0.01 | 0.01 | 64 | 1017.2 |
| 20260502090254 | 62 | 231 | 0.9 | 2.6 | 0.01 | 0.01 | 0.01 | 64 | 1017.3 |
| 20260502090129 | 59 | 231 | 0.9 | 2.6 | 0.01 | 0.01 | 0.01 | 73 | 1017.4 |
| 20260502071527 | 64 | 231 | 2.6 | 5.2 | 0.00 | 0.00 | 0.00 | 46 | 1017.4 |
| 20260502070501 | 63 | 232 | 2.6 | 6.1 | 0.00 | 0.00 | 0.00 | 48 | 1017.5 |
| 20260502065446 | 63 | 238 | 1.7 | 6.1 | 0.00 | 0.00 | 0.00 | 47 | 1017.6 |
| 20260502064434 | 62 | 226 | 1.7 | 5.2 | 0.00 | 0.00 | 0.00 | 52 | 1017.6 |
| 20260502063409 | 61 | 226 | 0.9 | 2.6 | 0.00 | 0.00 | 0.00 | 54 | 1017.7 |
| 20260502062354 | 60 | 226 | 0.0 | 0.0 | 0.00 | 0.00 | 0.00 | 55 | 1017.5 |
| 20260502061344 | 59 | 226 | 0.0 | 0.0 | 0.00 | 0.00 | 0.00 | 56 | 1017.6 |
| 20260502060332 | 57 | 226 | 0.0 | 2.6 | 0.00 | 0.00 | 0.00 | 58 | 1017.5 |
| 20260502055335 | 56 | 226 | 0.9 | 2.6 | 0.00 | 0.00 | 0.00 | 59 | 1017.3 |
| 20260502054320 | 56 | 226 | 0.0 | 1.7 | 0.00 | 0.00 | 0.00 | 58 | 1017.3 |
| 20260502053724 | 51 | 226 | 0.0 | 2.6 | 0.00 | 0.00 | 0.00 | 68 | 1017.3 |
| 20260502053407 | 54 | 226 | 0.0 | 1.7 | 0.00 | 0.00 | 0.00 | 63 | 1017.3 |
| 20260502051253 | 48 | 226 | 0.0 | 0.9 | 0.00 | 0.00 | 0.00 | 73 | 1017.4 |
| 20260502050224 | 47 | 226 | 0.0 | 0.0 | 0.00 | 0.00 | 0.00 | 73 | 1017.5 |
| 20260502045213 | 47 | 226 | 0.0 | 0.0 | 0.00 | 0.00 | 0.00 | 73 | 1017.4 |
| 20260502044143 | 46 | 226 | 0.0 | 0.0 | 0.00 | 0.00 | 0.00 | 73 | 1017.6 |
| 20260502043647 | 46 | 226 | 0.0 | 0.9 | 0.00 | 0.00 | 0.00 | 73 | 1017.6 |
| 20260502043530 | 47 | 226 | 0.0 | 0.0 | 0.00 | 0.00 | 0.00 | 71 | 1017.5 |
| 20260502043320 | 46 | 226 | 0.0 | 0.0 | 0.00 | 0.00 | 0.00 | 72 | 1017.5 |
| 20260502035040 | 47 | 226 | 0.0 | 0.0 | 0.00 | 0.00 | 0.00 | 70 | 1017.7 |
| 20260502034402 | 49 | 226 | 0.0 | 0.0 | 0.00 | 0.00 | 0.00 | 67 | 1017.9 |
| 20260502034033 | 47 | 226 | 0.0 | 0.0 | 0.00 | 0.00 | 0.00 | 69 | 1017.8 |
| 20260502031959 | 49 | 226 | 0.0 | 0.0 | 0.00 | 0.00 | 0.00 | 67 | 1017.9 |
| 20260502030927 | 49 | 226 | 0.0 | 0.0 | 0.00 | 0.00 | 0.00 | 67 | 1018.0 |
| 20260502025912 | 49 | 226 | 0.0 | 0.9 | 0.00 | 0.00 | 0.00 | 65 | 1018.1 |
| 20260502024854 | 52 | 226 | 0.0 | 0.9 | 0.00 | 0.00 | 0.00 | 62 | 1018.1 |
| 20260502023834 | 51 | 226 | 0.0 | 1.7 | 0.00 | 0.00 | 0.00 | 62 | 1018.1 |
| 20260502022817 | 51 | 226 | 0.0 | 0.9 | 0.00 | 0.00 | 0.00 | 63 | 1018.2 |
| 20260502021815 | 51 | 226 | 0.0 | 0.9 | 0.00 | 0.00 | 0.00 | 62 | 1018.2 |
| 20260502020802 | 51 | 226 | 0.0 | 0.9 | 0.00 | 0.00 | 0.00 | 61 | 1018.2 |
| 20260502020714 | 52 | 226 | 0.0 | 0.9 | 0.00 | 0.00 | 0.00 | 61 | 1018.3 |
| 20260502014749 | 52 | 226 | 0.0 | 0.0 | 0.00 | 0.00 | 0.00 | 59 | 1018.3 |
| 20260502013745 | 53 | 226 | 0.0 | 0.9 | 0.00 | 0.00 | 0.00 | 59 | 1018.4 |
| 20260502012720 | 53 | 226 | 0.0 | 0.9 | 0.00 | 0.00 | 0.00 | 59 | 1018.5 |
| 20260502011725 | 53 | 226 | 0.0 | 0.9 | 0.00 | 0.00 | 0.00 | 58 | 1018.6 |
| 20260502010708 | 53 | 226 | 0.0 | 0.9 | 0.00 | 0.00 | 0.00 | 58 | 1018.7 |
| 20260502005645 | 54 | 226 | 0.0 | 0.0 | 0.00 | 0.00 | 0.00 | 56 | 1018.8 |